Хами

Китай     42°50′04″N   93°30′27″E
темп.,
°C
ветер,
м/с
пор.,
м/с
влажн.,
%
обл.,
%
осадки,
мм/ч
давл.,
гПа
погр.,
м
19 июня, сб
сб1900:00+29с449100 0.0 100040
03:00+28св2211100 0.0 99917
06:00+28вюв4611100 0.0 1000140
09:00+32юв347100 0.0 1001891
12:00+34юв236100 0.0 9993557
15:00+34зюз547100 0.0 9984625
18:00+33сз238100 0.0 9973225
21:00+31ссз3310100 0.0 99824
20 июня, вс
вс2000:00+29с221394 0.0 99814
03:00+27зсз011536 0.0 99811
06:00+28юз341576 0.0 1000121
09:00+32ю111214 0.0 1000940
12:00+34юз23110 0.0 9993796
15:00+36зсз44101 0.0 9974242
18:00+35з85120 0.0 9973311
21:00+32зюз46150 0.0 998138
21 июня, пн
пн2100:00+30св913190 0.0 999289
03:00+25св11143372 0.0 1002281
06:00+24всв7938100 0.1 1005406
09:00+29юв46245 0.1 10051360
12:00+33ююв231779 0.1 10032839
15:00+35зюз141598 0.0 10003904
18:00+35з65155 0.0 10002622
21:00+31з5919100 0.0 1002502
22 июня, вт
вт2200:00+28всв342213 0.0 100288
03:00+26вюв48230 0.0 1003195
06:00+26вюв472012 0.0 1004435
09:00+31юв44132 0.0 10031007
12:00+34з101262 0.0 10012017
15:00+36юз119100 0.0 9992118
18:00+36з228100 0.0 9982198
21:00+33зсз57114 0.0 1000148
23 июня, ср
ср2300:00+30ссв10141385 0.0 1000301
03:00+29ссз6817100 0.0 1001245
06:00+28всв7819100 0.0 1003453
09:00+29ю5520100 0.0 10041026
12:00+33вюв021461 0.0 10021954
15:00+35ссв3412100 0.0 10002586
18:00+34ссв7513100 0.0 9991420
21:00+29ссв11121945 0.0 1002334